Time,TemperatureF,DewpointF,PressureIn,WindDirection,WindDirectionDegrees,WindSpeedMPH,WindSpeedGustMPH,Humidity,HourlyPrecipIn,Conditions,Clouds,dailyrainin,SoftwareType,DateUTC
2013-04-24 00:02:00,69.0,14.0,29.89,SSW,198,11.0,19.0,12,0.00,,,0.00,,2013-04-24 07:02:00,
2013-04-24 00:21:00,69.0,14.0,29.89,South,175,13.0,18.0,12,0.00,,,0.00,,2013-04-24 07:21:00,
2013-04-24 00:31:00,69.0,14.0,29.89,South,185,14.0,20.0,12,0.00,,,0.00,,2013-04-24 07:31:00,
2013-04-24 01:01:00,70.0,13.0,29.88,SW,214,18.0,25.0,11,0.00,,,0.00,,2013-04-24 08:01:00,
2013-04-24 01:21:00,70.0,13.0,29.87,South,178,19.0,24.0,11,0.00,,,0.00,,2013-04-24 08:21:00,
2013-04-24 01:33:00,70.0,13.0,29.87,South,184,19.0,25.0,11,0.00,,,0.00,,2013-04-24 08:33:00,
2013-04-24 01:42:00,70.0,13.0,29.87,South,184,19.0,25.0,11,0.00,,,0.00,,2013-04-24 08:42:00,
2013-04-24 01:52:00,69.0,12.0,29.86,SSW,195,15.0,21.0,11,0.00,,,0.00,,2013-04-24 08:52:00,
2013-04-24 02:01:00,69.0,12.0,29.86,South,178,20.0,24.0,11,0.00,,,0.00,,2013-04-24 09:01:00,
2013-04-24 02:11:00,69.0,12.0,29.86,South,178,20.0,24.0,11,0.00,,,0.00,,2013-04-24 09:11:00,
2013-04-24 02:21:00,69.0,12.0,29.85,South,171,16.0,22.0,11,0.00,,,0.00,,2013-04-24 09:21:00,
2013-04-24 02:32:00,69.0,12.0,29.85,South,173,16.0,21.0,11,0.00,,,0.00,,2013-04-24 09:32:00,
2013-04-24 02:42:00,69.0,12.0,29.85,South,173,16.0,21.0,11,0.00,,,0.00,,2013-04-24 09:42:00,
2013-04-24 02:53:00,69.0,14.0,29.85,SSE,168,15.0,21.0,12,0.00,,,0.00,,2013-04-24 09:53:00,
2013-04-24 03:02:00,69.0,14.0,29.85,SSW,192,13.0,23.0,12,0.00,,,0.00,,2013-04-24 10:02:00,
2013-04-24 03:12:00,69.0,14.0,29.85,SSW,192,13.0,23.0,12,0.00,,,0.00,,2013-04-24 10:12:00,
2013-04-24 03:22:00,69.0,19.0,29.84,South,184,15.0,21.0,15,0.00,,,0.00,,2013-04-24 10:22:00,
2013-04-24 03:32:00,69.0,22.0,29.84,South,191,16.0,21.0,17,0.00,,,0.00,,2013-04-24 10:32:00,
2013-04-24 03:53:00,68.0,20.0,29.85,WSW,244,7.0,19.0,16,0.00,,,0.00,,2013-04-24 10:53:00,
2013-04-24 04:02:00,67.0,23.0,29.85,SW,216,9.0,14.0,19,0.00,,,0.00,,2013-04-24 11:02:00,
2013-04-24 04:21:00,66.0,27.0,29.85,SW,215,9.0,18.0,23,0.00,,,0.00,,2013-04-24 11:21:00,
2013-04-24 04:31:00,66.0,28.0,29.85,SSW,203,7.0,15.0,24,0.00,,,0.00,,2013-04-24 11:31:00,
2013-04-24 04:52:00,65.0,28.0,29.86,WSW,253,4.0,11.0,25,0.00,,,0.00,,2013-04-24 11:52:00,
2013-04-24 05:01:00,64.0,28.0,29.86,WSW,240,6.0,7.0,26,0.00,,,0.00,,2013-04-24 12:01:00,
2013-04-24 05:22:00,62.0,27.0,29.86,WSW,238,4.0,6.0,26,0.00,,,0.00,,2013-04-24 12:22:00,
2013-04-24 05:31:00,61.0,29.0,29.86,SW,236,4.0,7.0,29,0.00,,,0.00,,2013-04-24 12:31:00,
2013-04-24 05:52:00,60.0,27.0,29.87,SW,236,1.0,2.0,28,0.00,,,0.00,,2013-04-24 12:52:00,
2013-04-24 06:01:00,59.0,27.0,29.88,SW,236,4.0,5.0,29,0.00,,,0.00,,2013-04-24 13:01:00,
2013-04-24 06:22:00,58.0,27.0,29.88,SW,236,2.0,4.0,30,0.00,,,0.00,,2013-04-24 13:22:00,
2013-04-24 06:31:00,57.0,27.0,29.89,SW,236,1.0,4.0,31,0.00,,,0.00,,2013-04-24 13:31:00,
2013-04-24 06:52:00,56.0,26.0,29.90,SW,236,0.0,3.0,31,0.00,,,0.00,,2013-04-24 13:52:00,
2013-04-24 07:01:00,56.0,25.0,29.91,SW,236,0.0,2.0,30,0.00,,,0.00,,2013-04-24 14:01:00,
2013-04-24 07:32:00,57.0,22.0,29.92,WSW,241,2.0,7.0,25,0.00,,,0.00,,2013-04-24 14:32:00,
2013-04-24 08:01:00,60.0,21.0,29.94,WSW,241,0.0,3.0,22,0.00,,,0.00,,2013-04-24 15:01:00,
2013-04-24 08:32:00,63.0,19.0,29.96,WSW,241,0.0,3.0,18,0.00,,,0.00,,2013-04-24 15:32:00,
2013-04-24 08:42:00,63.0,19.0,29.96,WSW,241,0.0,3.0,18,0.00,,,0.00,,2013-04-24 15:42:00,
2013-04-24 08:53:00,65.0,20.0,29.96,WSW,241,0.0,4.0,18,0.00,,,0.00,,2013-04-24 15:53:00,
2013-04-24 09:03:00,66.0,20.0,29.96,WSW,241,0.0,1.0,17,0.00,,,0.00,,2013-04-24 16:03:00,
2013-04-24 09:12:00,66.0,20.0,29.96,WSW,241,0.0,1.0,17,0.00,,,0.00,,2013-04-24 16:12:00,
2013-04-24 09:23:00,68.0,19.0,29.96,WSW,241,1.0,2.0,15,0.00,,,0.00,,2013-04-24 16:23:00,
2013-04-24 09:32:00,69.0,19.0,29.96,WSW,241,0.0,5.0,15,0.00,,,0.00,,2013-04-24 16:32:00,
2013-04-24 09:42:00,69.0,19.0,29.96,WSW,241,0.0,5.0,15,0.00,,,0.00,,2013-04-24 16:42:00,
2013-04-24 10:02:00,73.0,23.0,29.96,WSW,238,1.0,3.0,15,0.00,,,0.00,,2013-04-24 17:02:00,
2013-04-24 10:22:00,76.0,22.0,29.96,ENE,59,4.0,6.0,13,0.00,,,0.00,,2013-04-24 17:22:00,
2013-04-24 10:32:00,76.0,22.0,29.96,ENE,78,0.0,6.0,13,0.00,,,0.00,,2013-04-24 17:32:00,
2013-04-24 10:52:00,77.0,16.0,29.96,NE,42,6.0,11.0,10,0.00,,,0.00,,2013-04-24 17:52:00,
2013-04-24 11:01:00,78.0,17.0,29.96,NE,52,5.0,15.0,10,0.00,,,0.00,,2013-04-24 18:01:00,
2013-04-24 11:21:00,79.0,15.0,29.96,ENE,63,5.0,13.0,9,0.00,,,0.00,,2013-04-24 18:21:00,
2013-04-24 11:32:00,79.0,15.0,29.96,NE,42,7.0,12.0,9,0.00,,,0.00,,2013-04-24 18:32:00,
2013-04-24 11:52:00,80.0,16.0,29.95,East,95,6.0,12.0,9,0.00,,,0.00,,2013-04-24 18:52:00,
2013-04-24 12:01:00,80.0,16.0,29.95,NE,44,4.0,15.0,9,0.00,,,0.00,,2013-04-24 19:01:00,
2013-04-24 12:21:00,81.0,19.0,29.94,ENE,60,13.0,21.0,10,0.00,,,0.00,,2013-04-24 19:21:00,
2013-04-24 12:31:00,81.0,19.0,29.93,East,96,10.0,16.0,10,0.00,,,0.00,,2013-04-24 19:31:00,
2013-04-24 12:52:00,82.0,20.0,29.93,East,98,9.0,15.0,10,0.00,,,0.00,,2013-04-24 19:52:00,
2013-04-24 13:01:00,82.0,20.0,29.92,NE,55,14.0,18.0,10,0.00,,,0.00,,2013-04-24 20:01:00,
2013-04-24 13:21:00,82.0,22.0,29.91,East,82,10.0,19.0,11,0.00,,,0.00,,2013-04-24 20:21:00,
2013-04-24 13:32:00,82.0,18.0,29.91,NNE,28,9.0,19.0,9,0.00,,,0.00,,2013-04-24 20:32:00,
2013-04-24 13:52:00,83.0,18.0,29.89,NE,48,9.0,18.0,9,0.00,,,0.00,,2013-04-24 20:52:00,
2013-04-24 14:01:00,83.0,18.0,29.89,East,79,12.0,21.0,9,0.00,,,0.00,,2013-04-24 21:01:00,
2013-04-24 14:21:00,82.0,20.0,29.88,ENE,66,9.0,20.0,10,0.00,,,0.00,,2013-04-24 21:21:00,
2013-04-24 14:32:00,83.0,21.0,29.88,ENE,70,9.0,18.0,10,0.00,,,0.00,,2013-04-24 21:32:00,
2013-04-24 14:52:00,84.0,19.0,29.86,East,96,11.0,18.0,9,0.00,,,0.00,,2013-04-24 21:52:00,
2013-04-24 15:02:00,84.0,22.0,29.86,NE,54,9.0,17.0,10,0.00,,,0.00,,2013-04-24 22:02:00,
2013-04-24 15:22:00,85.0,22.0,29.85,ESE,105,6.0,15.0,10,0.00,,,0.00,,2013-04-24 22:22:00,
2013-04-24 15:32:00,84.0,22.0,29.85,ENE,69,7.0,16.0,10,0.00,,,0.00,,2013-04-24 22:32:00,
2013-04-24 15:52:00,82.0,22.0,29.84,SE,126,7.0,18.0,11,0.00,,,0.00,,2013-04-24 22:52:00,
2013-04-24 16:02:00,82.0,22.0,29.84,East,94,10.0,16.0,11,0.00,,,0.00,,2013-04-24 23:02:00,
2013-04-24 16:21:00,81.0,22.0,29.83,ENE,71,9.0,17.0,11,0.00,,,0.00,,2013-04-24 23:21:00,
2013-04-24 16:32:00,82.0,22.0,29.83,East,86,4.0,13.0,11,0.00,,,0.00,,2013-04-24 23:32:00,
2013-04-24 16:52:00,82.0,22.0,29.83,ESE,119,11.0,16.0,11,0.00,,,0.00,,2013-04-24 23:52:00,
2013-04-24 17:01:00,82.0,22.0,29.83,East,90,8.0,18.0,11,0.00,,,0.00,,2013-04-25 00:01:00,
2013-04-24 17:22:00,82.0,22.0,29.82,ESE,111,10.0,17.0,11,0.00,,,0.00,,2013-04-25 00:22:00,
2013-04-24 17:32:00,82.0,22.0,29.82,ESE,105,11.0,17.0,11,0.00,,,0.00,,2013-04-25 00:32:00,
2013-04-24 17:52:00,80.0,21.0,29.82,ESE,107,14.0,19.0,11,0.00,,,0.00,,2013-04-25 00:52:00,
2013-04-24 18:01:00,79.0,20.0,29.83,East,86,10.0,15.0,11,0.00,,,0.00,,2013-04-25 01:01:00,
2013-04-24 18:22:00,78.0,21.0,29.83,ENE,75,8.0,11.0,12,0.00,,,0.00,,2013-04-25 01:22:00,
2013-04-24 18:32:00,77.0,20.0,29.83,ESE,109,4.0,12.0,12,0.00,,,0.00,,2013-04-25 01:32:00,
2013-04-24 18:52:00,77.0,20.0,29.83,ENE,67,5.0,10.0,12,0.00,,,0.00,,2013-04-25 01:52:00,
2013-04-24 19:01:00,76.0,22.0,29.83,East,84,4.0,9.0,13,0.00,,,0.00,,2013-04-25 02:01:00,
2013-04-24 19:22:00,76.0,22.0,29.83,ENE,72,6.0,9.0,13,0.00,,,0.00,,2013-04-25 02:22:00,
2013-04-24 19:32:00,75.0,21.0,29.83,ENE,67,4.0,8.0,13,0.00,,,0.00,,2013-04-25 02:32:00,
2013-04-24 19:42:00,75.0,21.0,29.83,ENE,67,4.0,8.0,13,0.00,,,0.00,,2013-04-25 02:42:00,
2013-04-24 19:51:00,75.0,21.0,29.83,ENE,67,4.0,8.0,13,0.00,,,0.00,,2013-04-25 02:51:00,
2013-04-24 20:02:00,74.0,20.0,29.83,East,79,1.0,5.0,13,0.00,,,0.00,,2013-04-25 03:02:00,
2013-04-24 21:33:00,69.0,18.0,29.84,East,80,0.0,0.0,14,0.00,,,0.00,,2013-04-25 04:33:00,
2013-04-24 21:52:00,69.0,18.0,29.84,East,98,0.0,2.0,14,0.00,,,0.00,,2013-04-25 04:52:00,
2013-04-24 22:02:00,69.0,18.0,29.85,East,98,0.0,0.0,14,0.00,,,0.00,,2013-04-25 05:02:00,
2013-04-24 22:21:00,69.0,18.0,29.85,North,5,3.0,5.0,14,0.00,,,0.00,,2013-04-25 05:21:00,
2013-04-24 22:31:00,69.0,18.0,29.85,WNW,289,3.0,5.0,14,0.00,,,0.00,,2013-04-25 05:31:00,
2013-04-24 22:52:00,68.0,17.0,29.85,West,281,3.0,4.0,14,0.00,,,0.00,,2013-04-25 05:52:00,
2013-04-24 23:01:00,68.0,17.0,29.85,SSW,205,8.0,10.0,14,0.00,,,0.00,,2013-04-25 06:01:00,
2013-04-24 23:11:00,68.0,17.0,29.85,SSW,205,8.0,10.0,14,0.00,,,0.00,,2013-04-25 06:11:00,
2013-04-24 23:22:00,69.0,16.0,29.85,South,182,4.0,6.0,13,0.00,,,0.00,,2013-04-25 06:22:00,
2013-04-24 23:31:00,69.0,18.0,29.85,SSE,152,3.0,10.0,14,0.00,,,0.00,,2013-04-25 06:31:00,
2013-04-24 23:41:00,69.0,18.0,29.85,SSE,152,3.0,10.0,14,0.00,,,0.00,,2013-04-25 06:41:00,
2013-04-24 23:52:00,69.0,18.0,29.85,SSE,152,3.0,10.0,14,0.00,,,0.00,,2013-04-25 06:52:00,